User: anonymous   Login
Location: �perlecques
(50.8057°N, 2.1521°E)
Time: 18:00:13
(UTC+00:00)
Language:

Cosmos 1339 Rocket - Orbit

View from above orbital plane
View from above orbital plane
View from above satellite
View from above satellite

Ground track
Ground track

The orbit data is extracted from the following two-line orbital elements,

1 13066U 82012B   20185.24330227  .00000031  00000-0  16102-4 0  9996
2 13066  82.8978 108.1802 0043894   6.4985 147.2483 13.77204216928270
Epoch (UTC): 03 July 2020 05:50:21
Eccentricity: 0.0043894
inclination: 82.8978°
perigee height: 941 km
apogee height: 1006 km
right ascension of ascending node: 108.1802°
argument of perigee: 6.4985°
revolutions per day: 13.77204216
mean anomaly at epoch: 147.2483°
orbit number at epoch: 92827

The dashed part of the orbit path shows where the satellite is in the earth's shadow,  

DLR